DECAYED

YZ-1S R/B, 65621 (Decayed)

Orbit data source: Space-Track

YZ-1S R/B, 65621 was space debris in LEO originally from a launch on Tue, 16 Sep 2025 UTC launched from the Jiuquan Satellite Launch Center, China (JSC). Debris objects in space refer to the collection of defunct objects orbiting the Earth. Examples of debris include non-operational satellites, rocket bodies, and fragments generated from explosions, collisions, or faulty payload assembly.

Not visible in the next 10 days
Identifier
65621, 2025-209E
Orbit
Decayed
Country
Flag of CNCN / PRC
Related business
Manufacturer
CALT
Mission
Decayed spacecraft
Bus & Motor
YZ-1, Unknown motor
Mass
~2,500 kg wet, ~2,500 kg dry
Launch date (UTC)
2025-09-16 (9 months ago)
Launch vehicle
Unknown
Launch site
Jiuquan Satellite Launch Center, China (JSC)
Object type
Payload
Rocket body
Debris
Shape & HBR
Double Cone, 1.1 m
Radar Cross Section
5.890 m²

Expand to show TLE details & history
Last TLE update: 9 months ago

TLE from 9 months ago
0 YZ-1S R/B
1 65621U 25209E   25260.85569006  .08424882  10456-4  15498-3 0  9998
2 65621  49.9704 330.0593 0442792 324.7574  32.4835 15.52925429   254
Epoch: 2025-09-17T20:32Z
TLE epoch observation values (Epoch: 2025-09-17T20:32:11.621Z)
Latitude
-0.00002°
Longitude
24.98521°
Altitude
159.352 km
Speed
7.954 km/s
True Right ascension
22h 00m 14s
True Declination
0° 00' 00"
Sunlit
Object was in full shadow at epoch
Visualization orbit readout
Latitude
Unknown
Longitude
Unknown
Altitude
Unknown
Speed
Unknown
Apparent Right ascension
Unknown
Apparent Declination
Unknown
Sunlit
N/A
Visualization observer readout
Local Sidereal Time
07:20:50
Azimuth
Unknown
Elevation
Unknown
Doppler factor
Unknown
Orbital elements
Apogee altitude
709.507 km
Perigee altitude
108.451 km
Semi-major axis
6,787.116 km
Eccentricity
0.04428
Inclination
49.9704°
RAAN
330.0593°
Arg. of periapsis
324.7574°
True anomaly
35.34053°
Mean anomaly
32.4835°
Eccentric anomaly
33.89845°
Mean motion
3.88164 °/min
Orbital period
92.74 mins
BSTAR
0.00015498
Loading maneuver chart data...
Computing Atmospheric mass density...
Loading historical data...
Loading historical data...
Loading historical data...
Loading historical data...
Loading historical data...
Loading historical data...
Loading historical data...
Other satellites on launch #209 in the year 2025 (2025-09-16 UTC)

Documentation

Showing up to 5 results
|